Skip Page Navigation
NASA JPL Caltech
NASA Logo - Jet Propulsion Laboratory + View the NASA Portal
+ Center for Near-Earth Object Studies
JPL Home Earth Solar System Stars & Galaxies Technology
JPL Solar System Dynamics
BODIES ORBITS EPHEMERIDES TOOLS PHYSICAL DATA DISCOVERY FAQ SITE MAP
IMPORTANT: The SSD Announcement email list is now available. Major changes are coming in the near future, including possible hostname and/or URL changes. To be notified of such changes, subscribe to this email list.

Please visit this page for more details.


JPL Small-Body Database Browser
Search: [ help ]  
95255 (2002 CU56)
Classification: Outer Main-belt Asteroid          SPK-ID: 2095255
Ephemeris | Orbit Diagram | Orbital Elements | Mission Design | Physical Parameters | Discovery Circumstances | Close-Approach Data ]

[ show orbit diagram ]
Orbital Elements at Epoch 2459000.5 (2020-May-31.0) TDB
Reference: JPL 19 (heliocentric ecliptic J2000)
 Element Value Uncertainty (1-sigma)   Units 
e .09675448535912297 4.3029e-08  
a 3.232388682473904 2.047e-08 au
q 2.919640579020488 1.3681e-07 au
i 6.373470829240965 4.5803e-06 deg
node 345.827229562448 4.2636e-05 deg
peri 203.7152928469131 4.9317e-05 deg
M 31.0615298349378 2.4074e-05 deg
tp 2458817.351176149167
(2019-Nov-29.85117615)
0.00014214 TDB
period 2122.676408299056
5.81
2.0164e-05
5.521e-08
d
yr
n .169597211611013 1.611e-09 deg/d
Q 3.54513678592732 2.245e-08 au
  Orbit Determination Parameters
   # obs. used (total)      785  
   data-arc span      8840 days (24.20 yr)  
   first obs. used      1996-02-14  
   last obs. used      2020-04-28  
   planetary ephem.      DE431  
   SB-pert. ephem.      SB431-N16  
   condition code      0  
   norm. resid. RMS      .50508  
   source      ORB  
   producer      Otto Matic  
   solution date      2020-May-20 17:13:19  

Additional Information
 Earth MOID = 1.92197 au 
 Jupiter MOID = 1.43426 au 
 T_jup = 3.169 
[ show covariance matrix ]

Ephemeris | Orbit Diagram | Orbital Elements | Mission Design | Physical Parameters | Discovery Circumstances | Close-Approach Data ]

Physical Parameter Table
Parameter Symbol Value Units Sigma Reference Notes
absolute magnitude H 14.3   n/a MPO474830  

95255 (2002 CU56)          Discovered 2002-Feb-07 by LINEAR at Socorro
Reference: 20041028/Numbers.arcLast Updated: 2004-10-29

[ hide close-approach data ]
Close-Approach Data   ...sorted by Date/Time (TDB)
Date/Time (TDB) Time Uncertainty
(days_HH:MM)
Body Nominal Distance (au) Minimum Distance (au) Maximum Distance (au) V-relative (km/s) V-infinity (km/s) JD (TDB) Time Uncertainty (minutes) Semi-major axis (km) Semi-minor axis (km) range-LOV angle (deg) N-sigma BP Orbit Ref. Reference Modified
1988-Nov-28 06:13 < 00:01 Jupiter 1.78173937099933 1.78173858745162 1.78174015454674 2.38416678921168 2.17565384806821 2447493.759157862 0.989245385254548 48.7136918106017 13.3460014904212 -75.5399759888273 1680695.10668662 T 19 CATAB v2.0f-lin.ifort 2020-May-20 17:13:32 2020-May-20 17:13
2000-Jan-20 07:18 < 00:01 Jupiter 1.5671064944323 1.56710584969163 1.56710713917467 1.83080432895343 1.5069315290562 2451563.804335659 0.650628677500071 125.675993139917 50.2127993966976 -80.8786019467408 1842389.82334896 T 19 CATAB v2.0f-lin.ifort 2020-May-20 17:13:32 2020-May-20 17:13
2011-Apr-27 08:22 < 00:01 Jupiter 1.44207753639809 1.44207701497752 1.44207805782619 1.88216061890445 1.53876679527681 2455678.848385032 0.342337444870773 202.917446455495 66.5460791491839 -86.5580200170496 1743448.72229994 T 19 CATAB v2.0f-lin.ifort 2020-May-20 17:13:32 2020-May-20 17:13
2022-Aug-29 14:37 < 00:01 Jupiter 1.42109951770266 1.42109905746132 1.42109997795039 2.10334268328158 1.7977719575326 2459821.108707555 0.43865854421763 265.074282140827 39.2669043477665 86.6256880646657 2478367.14054515 T 19 CATAB v2.0f-lin.ifort 2020-May-20 17:13:32 2020-May-20 17:13
2033-Dec-23 03:03 < 00:01 Jupiter 1.50712901337781 1.50712837952424 1.50712964723122 2.40679550241163 2.16070436301457 2463954.627373121 0.854602213454408 172.286170262222 23.2317090699261 85.4831780706937 2280294.27484293 T 19 CATAB v2.0f-lin.ifort 2020-May-20 17:13:32 2020-May-20 17:13
2045-Mar-12 12:32 00:01 Jupiter 1.71245306541308 1.71245197572045 1.71245415510582 2.88611020048755 2.7093138616235 2468052.022471786 1.33645059922241 93.1495022875627 35.6175155999239 73.0998396819462 1749939.1886689 T 19 CATAB v2.0f-lin.ifort 2020-May-20 17:13:32 2020-May-20 17:13
2056-Apr-28 05:54 00:02 Jupiter 1.99053431400767 1.99053290159532 1.99053572642013 3.62608551767471 3.5067714179482 2472116.746028826 1.71493215170056 80.3923606318458 38.5440903296002 46.3667949270807 1727850.11511404 T 19 CATAB v2.0f-lin.ifort 2020-May-20 17:13:32 2020-May-20 17:13
2167-Jul-18 09:14 00:03 Jupiter 1.87605324744065 1.87605115009422 1.8760553447858 2.84144332206893 2.67783806524414 2512738.884396271 3.37661517248865 85.9631184696116 36.6102313990241 55.8766181196058 986979.092205218 T 19 CATAB v2.0f-lin.ifort 2020-May-20 17:13:32 2020-May-20 17:13
2178-Sep-02 12:16 00:03 Jupiter 1.65638872822749 1.65638681923015 1.6563906372205 1.8367437091168 1.53326236368585 2516803.011413198 3.40472797060167 116.050139484144 52.9299694867099 50.9660242968659 856501.839116208 T 19 CATAB v2.0f-lin.ifort 2020-May-20 17:13:32 2020-May-20 17:13
2189-Nov-19 13:05 00:03 Jupiter 1.502506963375 1.50250563279954 1.50250829396856 1.52080961276654 1.08875290564855 2520899.044883901 3.21601642332818 340.181998642238 161.055022356065 -84.556607168671 1651771.02667253 T 19 CATAB v2.0f-lin.ifort 2020-May-20 17:13:32 2020-May-20 17:13
Ephemeris | Orbit Diagram | Orbital Elements | Mission Design | Physical Parameters | Discovery Circumstances | Close-Approach Data ]
ABOUT SSD CREDITS/AWARDS PRIVACY/COPYRIGHT GLOSSARY LINKS
FirstGov 2020-May-27 23:33 UT
(server date/time)  
NASA Home Page
Site Manager:   Ryan S. Park
Webmaster  Alan B. Chamberlin